Agua Nueva, Mexico

3:04 AM CST on February 26, 2017 (GMT -0600)
Ciudad Victoria

Weather History for MMCV - February, 2013

Change the Weather History Date:

Saturday, February 16, 2013

  Actual Average Record
Temperature  
Mean Temperature 59 °F -  
Max Temperature 66 °F 82 °F 92 °F (2016)
Min Temperature 52 °F 59 °F 41 °F (1997)
Degree Days  
Heating Degree Days 6    
Growing Degree Days 9 (Base 50)    
Moisture  
Dew Point 49 °F    
Average Humidity 68    
Maximum Humidity 100    
Minimum Humidity 37    
Precipitation  
Precipitation 0.12 in - - ()
Sea Level Pressure  
Sea Level Pressure 30.39 in    
Wind  
Wind Speed 7 mph ()    
Max Wind Speed 16 mph    
Max Gust Speed 21 mph    
Visibility 6.2 miles    
Events Rain    
Averages and records for this station are not official NWS values.
T = Trace of Precipitation, MM = Missing Value Source: Averaged Metar Reports

Daily Weather History Graph

Daily Weather History Graph

Search for Another Location

Airport or City:

Trip Planner

Search our weather history database for the weather conditions in past years. The results will help you decide how hot, cold, wet, or windy it might be!

Date:

Astronomy

Feb. 16, 2013 Rise Set
Actual Time 7:07 AM CST 6:32 PM CST
Civil Twilight 6:44 AM CST 6:55 PM CST
Nautical Twilight 6:18 AM CST 7:21 PM CST
Astronomical Twilight 5:51 AM CST 7:48 PM CST
Moon 11:10 AM CST (2/16) No Moon Set
Length of Visible Light 12h 10m
Length of Day
11h 24m
Waxing Crescent, 39% of the Moon is Illuminated
Feb 16
Waxing Crescent
Feb 17
First Quarter
Feb 25
Full
Mar 4
Last Quarter
Mar 11
New

Hourly Weather History & Observations

Time (CST) Temp. Dew Point Humidity Pressure Visibility Wind Dir Wind Speed Gust Speed Precip Events Conditions
2:45 AM 59 °F 58 °F 97% 30.30 in 4 mi North 2.2 mph - - Rain Light Drizzle
5:45 AM 55 °F 55 °F 100% 30.40 in 4 mi North 8.9 mph - - Rain Light Drizzle
6:13 AM 55.4 °F 55.4 °F 100% 30.38 in 4.0 mi NNW 9.2 mph - N/A   Mostly Cloudy
6:40 AM 55.4 °F 55.4 °F 100% 30.39 in 4.0 mi NNW 13.8 mph - N/A   Light Drizzle
7:02 AM 55.4 °F 55.4 °F 100% 30.39 in 3.0 mi NNW 12.7 mph - N/A   Overcast
7:40 AM 53.6 °F 53.6 °F 100% 30.41 in 4.0 mi NW 9.2 mph 20.7 mph N/A   Overcast
8:48 AM 53.6 °F 51.8 °F 94% 30.46 in 6.0 mi NW 9.2 mph - N/A   Overcast
8:50 AM 54 °F 53 °F 94% 30.51 in 6 mi NNW 6.7 mph - - Rain Light Rain
9:42 AM 55.4 °F 51.8 °F 88% 30.45 in 8.0 mi NW 6.9 mph - N/A   Mostly Cloudy
10:40 AM 59.0 °F 50.0 °F 72% 30.45 in 8.0 mi NNW 13.8 mph - N/A   Mostly Cloudy
11:44 AM 62.6 °F 48.2 °F 59% 30.45 in 8.0 mi North 16.1 mph - N/A   Mostly Cloudy
11:50 AM 61 °F 49 °F 54% 30.51 in 6 mi NNW 8.9 mph - -   Mostly Cloudy
12:40 PM 66.2 °F 42.8 °F 43% 30.40 in 8.0 mi NNW 13.8 mph - N/A   Mostly Cloudy
1:40 PM 64.4 °F 41.0 °F 42% 30.38 in 8.0 mi NW 6.9 mph - N/A   Mostly Cloudy
2:42 PM 68.0 °F 41.0 °F 37% 30.38 in 8.0 mi NNW 3.5 mph - N/A   Overcast
2:50 PM 63 °F 48 °F 47% 30.42 in 6 mi North 2.2 mph - -   Mostly Cloudy
3:40 PM 66.2 °F 42.8 °F 43% 30.33 in 8.0 mi NW 3.5 mph - N/A   Overcast
4:41 PM 64.4 °F 42.8 °F 45% 30.33 in 8.0 mi WNW 3.5 mph - N/A   Overcast
5:40 PM 64.4 °F 42.8 °F 45% 30.35 in 8.0 mi West 5.8 mph - N/A   Overcast
5:50 PM 62 °F 47 °F 47% 30.37 in 6 mi South 2.2 mph - -   Overcast
6:40 PM 62.6 °F 42.8 °F 48% 30.32 in 8.0 mi WSW 3.5 mph - N/A   Overcast
7:40 PM 60.8 °F 44.6 °F 55% 30.32 in 6.0 mi West 3.5 mph - N/A   Overcast
8:40 PM 60.8 °F 44.6 °F 55% 30.36 in 6.0 mi WSW 2.3 mph - N/A   Overcast
11:45 PM 58 °F 50 °F 67% 30.36 in 4 mi ESE 2.2 mph - -   Mostly Cloudy